Location: Casilda
(33.0440°S, 61.1680°W)
Time: 09:25:51
(UTC-03:00)

ISS - Pass Details

Date: 11 August 2022
Orbit: 412 x 420 km, 51.6° (Epoch: 13 August)

Event Time Altitude Azimuth Distance (km) Brightness Sun altitude
Exits shadow 05:47:25 31° 60° (ENE) 778 -1.9 -25.4°
Drops below altitude 10° 05:49:18 10° 52° (NE) 1,506 -0.3 -25.0°
Sets 05:51:24 0° 50° (NE) 2,362 0.8 -24.5°
